Location: Trois-Rivi�res
(46.3500°N, 72.5500°W)
Time: 17:15:27
(UTC-05:00)

Vanguard 1 - Visible Passes

Search period start: 18 February 2018 00:00
Search period end: 28 February 2018 00:00
Orbit: 650 x 3833 km, 34.2° (Epoch: 17 February)

Date Brightness Start Highest point End Pass type
(mag) Time Alt. Az. Time Alt. Az. Time Alt. Az.
18 Feb 11.5 18:07:46 10° WSW 18:13:00 24° SSW 18:16:56 10° SE visible
19 Feb 11.6 18:28:54 10° WSW 18:33:39 21° SSW 18:37:19 10° SSE visible
20 Feb 11.7 18:50:15 10° WSW 18:54:13 17° SSW 18:57:26 10° SSE visible
21 Feb 11.8 19:12:00 10° WSW 19:14:43 13° SSW 19:17:04 10° S visible
24 Feb 12.0 17:51:38 10° WSW 17:57:35 22° SSW 18:01:51 10° SSE visible
25 Feb 12.1 18:13:18 10° WSW 18:18:02 17° SW 18:21:39 10° S visible
26 Feb 12.4 18:35:37 10° WSW 18:38:22 12° SW 18:40:44 10° SSW visible
